GW6339 Weather Reports


time (UTC)temp
F
wind
direction
speed
knots
gust
knots
rain 1hr
in
rain 24hr
in
rain mn
in
humidity
%
barometer
mb
20260509054320 71 269 0.0 1.7 0.00 0.29 0.00 82 1010.5
20260509054221 71 254 1.7 1.7 0.00 0.29 0.00 82 1010.4
20260509053621 71 221 0.0 1.7 0.00 0.29 0.00 82 1010.7
20260509053520 71 325 0.9 1.7 0.00 0.29 0.00 82 1010.9
20260509051320 72 295 0.9 2.6 0.00 0.29 0.00 81 1011.5
20260509051220 72 211 1.7 2.6 0.00 0.29 0.00 81 1011.5
20260509050921 71 266 0.9 1.7 0.00 0.29 0.00 81 1011.6
20260509050820 71 315 0.9 2.6 0.00 0.29 0.00 81 1011.5
20260509050621 71 295 1.7 3.5 0.00 0.29 0.00 82 1011.5
20260509050421 71 293 1.7 3.5 0.00 0.29 0.00 82 1011.3
20260509050320 71 302 1.7 1.7 0.00 0.29 0.00 82 1011.2
20260509050220 71 292 0.9 3.5 0.00 0.29 0.00 82 1010.9
20260509050120 71 343 1.7 3.5 0.00 0.29 0.00 82 1010.8
20260509050021 71 335 0.9 0.9 0.00 0.29 0.00 82 1010.7
20260509045720 71 304 0.0 1.7 0.00 0.29 0.31 81 1010.3
20260509045620 71 299 0.9 1.7 0.00 0.29 0.31 81 1010.4
20260509044720 71 224 0.0 1.7 0.00 0.29 0.31 81 1010.1
20260509044620 71 213 0.9 1.7 0.00 0.29 0.31 81 1009.9
20260509044020 71 155 0.0 0.9 0.00 0.29 0.31 80 1009.7
20260509043920 71 136 0.9 0.9 0.00 0.29 0.31 80 1009.7
20260509043120 71 180 0.0 1.7 0.00 0.29 0.31 79 1009.6
20260509042520 72 200 0.9 1.7 0.00 0.29 0.31 79 1009.7
20260509042421 72 192 1.7 1.7 0.00 0.29 0.31 79 1009.9
20260509041820 72 206 0.0 1.7 0.00 0.29 0.31 78 1009.7
20260509041720 72 22 0.9 3.5 0.00 0.29 0.31 78 1009.7
20260509041420 72 85 1.7 2.6 0.00 0.29 0.31 78 1009.5
20260509040921 72 310 0.0 1.7 0.00 0.29 0.31 78 1009.8
20260509040820 72 173 0.9 0.9 0.00 0.29 0.31 78 1009.5
20260509040720 72 32 0.0 1.7 0.00 0.29 0.31 78 1009.7
20260509040620 72 7 0.9 2.6 0.00 0.29 0.31 78 1009.5
20260509040423 72 26 0.0 1.7 0.00 0.29 0.31 78 1009.4
20260509040325 72 55 0.9 1.7 0.00 0.29 0.31 77 1009.4
20260509035720 72 339 0.0 1.7 0.00 0.29 0.31 77 1009.7
20260509035420 72 172 0.9 0.9 0.00 0.29 0.31 77 1009.8
20260509034020 72 93 0.9 0.9 0.00 0.29 0.31 77 1010.5
20260509031321 72 135 0.0 1.7 0.00 0.29 0.31 77 1010.0
20260509031220 72 193 0.9 3.5 0.00 0.29 0.31 77 1010.2
20260509025220 72 318 0.0 1.7 0.00 0.29 0.31 78 1009.6
20260509025119 72 248 0.9 1.7 0.00 0.29 0.31 78 1009.6
20260509024020 72 42 0.9 0.9 0.00 0.29 0.31 78 1009.3
20260509023520 72 212 0.0 2.6 0.00 0.29 0.31 78 1009.0
20260509023420 72 142 1.7 2.6 0.00 0.29 0.31 77 1009.1
20260509023320 72 119 1.7 2.6 0.00 0.29 0.31 77 1008.9
20260509023020 72 51 0.9 0.9 0.00 0.29 0.31 77 1009.0
20260509022820 72 9 0.0 1.7 0.00 0.29 0.31 77 1008.7
20260509022521 72 249 1.7 1.7 0.00 0.29 0.31 77 1008.9
20260509022420 72 34 0.0 1.7 0.00 0.29 0.31 77 1008.6
20260509022321 72 184 1.7 2.6 0.00 0.29 0.31 77 1008.9
20260509021721 72 47 0.0 2.6 0.00 0.29 0.31 77 1008.5
20260509021621 72 127 2.6 2.6 0.00 0.29 0.31 77 1008.7
20260509021521 72 107 0.9 1.7 0.00 0.29 0.31 77 1008.5
20260509021320 72 10 0.0 4.3 0.00 0.29 0.31 77 1008.4
20260509021220 72 19 1.7 2.6 0.00 0.29 0.31 77 1008.4
20260509020721 72 208 1.7 1.7 0.00 0.29 0.31 77 1008.6
20260509020520 72 66 0.0 1.7 0.00 0.29 0.31 77 1008.8
20260509020420 72 204 1.7 1.7 0.00 0.29 0.31 77 1008.6
20260509020320 72 128 0.9 1.7 0.00 0.29 0.31 77 1008.6
20260509015720 72 65 0.0 1.7 0.00 0.29 0.31 76 1008.7
20260509015620 72 296 0.9 1.7 0.00 0.29 0.31 76 1008.8
20260509015520 72 160 0.0 1.7 0.00 0.29 0.31 76 1008.6
20260509015419 72 37 0.9 1.7 0.00 0.29 0.31 76 1008.4
20260509015220 72 54 0.0 1.7 0.00 0.29 0.31 76 1008.6
20260509015019 72 130 0.0 1.7 0.00 0.29 0.31 76 1008.9
20260509014719 72 157 0.9 1.7 0.00 0.29 0.31 76 1008.8
20260509014420 72 200 0.0 1.7 0.00 0.29 0.31 75 1008.6
20260509014320 72 43 1.7 2.6 0.00 0.29 0.31 75 1008.5
20260509013820 72 135 0.0 1.7 0.00 0.29 0.31 75 1008.5
20260509013720 72 87 1.7 1.7 0.00 0.29 0.31 75 1008.3
20260509013320 72 198 0.0 0.9 0.00 0.29 0.31 75 1008.4
20260509013220 72 179 0.9 0.9 0.00 0.29 0.31 75 1008.6
20260509012121 73 51 1.7 1.7 0.00 0.29 0.31 74 1008.5
20260509012021 73 122 0.0 1.7 0.00 0.29 0.31 74 1008.7
20260509011920 73 184 1.7 1.7 0.00 0.29 0.31 74 1008.7
20260509011821 73 186 0.0 0.9 0.00 0.29 0.31 74 1008.7
20260509011720 73 207 0.9 0.9 0.00 0.29 0.31 74 1008.5
20260509011620 73 13 0.0 1.7 0.00 0.29 0.31 74 1008.5
20260509011520 73 190 1.7 1.7 0.00 0.29 0.31 74 1008.5
20260509010721 73 309 0.0 1.7 0.00 0.29 0.31 73 1008.3
20260509010521 73 352 0.9 0.9 0.00 0.29 0.31 73 1008.5
20260509010420 73 175 0.0 0.9 0.00 0.29 0.31 73 1008.4
20260509010320 73 39 0.9 1.7 0.00 0.29 0.31 73 1008.6
20260509010219 73 177 0.0 1.7 0.00 0.29 0.31 73 1008.4
20260509005919 74 240 0.9 1.7 0.00 0.29 0.31 72 1008.4
20260509005720 74 147 0.0 2.6 0.00 0.29 0.31 72 1008.3
20260509005620 74 293 0.9 1.7 0.00 0.29 0.31 72 1008.3
20260509005520 74 210 0.0 1.7 0.00 0.29 0.31 72 1008.2
20260509005419 74 158 0.9 1.7 0.00 0.29 0.31 72 1008.2
20260509004819 74 89 0.0 1.7 0.00 0.29 0.31 71 1008.3
20260509004719 74 44 0.9 1.7 0.00 0.29 0.31 71 1008.0
20260509004219 74 202 0.0 0.9 0.00 0.29 0.31 71 1007.8
20260509004120 74 92 0.9 1.7 0.00 0.29 0.31 70 1007.9
20260509003719 74 75 0.0 3.5 0.00 0.29 0.31 70 1007.9
20260509003620 74 55 1.7 3.5 0.00 0.29 0.31 70 1007.8
20260509002920 74 171 0.0 2.6 0.00 0.29 0.31 70 1007.6
20260509002619 75 48 0.0 2.6 0.00 0.29 0.31 69 1007.6
20260509002219 75 258 0.9 1.7 0.00 0.29 0.31 69 1007.6
20260509002119 75 158 0.0 1.7 0.00 0.29 0.31 69 1007.8
20260509001820 75 61 1.7 1.7 0.00 0.29 0.31 69 1007.8
20260509001720 74 75 0.9 1.7 0.00 0.29 0.31 69 1007.8
20260509000919 74 194 1.7 2.6 0.00 0.29 0.31 69 1007.9
20260509000819 74 130 0.0 3.5 0.00 0.29 0.31 69 1007.8
20260509000719 74 288 1.7 3.5 0.00 0.29 0.31 69 1007.8
20260509000419 75 94 1.7 2.6 0.00 0.29 0.31 69 1007.6
20260509000319 75 191 0.0 2.6 0.00 0.29 0.31 68 1007.6
20260509000219 75 133 0.9 3.5 0.00 0.29 0.31 68 1007.7
20260509000119 75 168 0.0 3.5 0.00 0.29 0.31 68 1007.9
20260509000020 75 96 2.6 3.5 0.00 0.29 0.31 68 1007.7
20260508235920 75 89 1.7 1.7 0.00 0.29 0.31 68 1008.0
20260508235819 75 70 0.0 4.3 0.00 0.29 0.31 68 1007.7
20260508235720 75 41 1.7 4.3 0.00 0.29 0.31 68 1007.7
20260508235519 75 67 0.9 1.7 0.00 0.29 0.31 68 1008.0
20260508235319 75 191 1.7 1.7 0.00 0.29 0.31 68 1007.8
20260508235220 75 322 0.9 0.9 0.00 0.29 0.31 68 1007.9
20260508235020 75 185 0.0 1.7 0.00 0.29 0.31 68 1008.1
20260508234820 75 299 0.9 2.6 0.00 0.29 0.31 68 1007.9
20260508233820 75 21 0.0 3.5 0.00 0.29 0.31 68 1008.1
20260508233720 75 59 0.9 3.5 0.00 0.29 0.31 68 1008.1
20260508233620 75 159 1.7 2.6 0.00 0.29 0.31 68 1008.2
20260508233320 75 102 1.7 2.6 0.00 0.29 0.31 67 1008.4
20260508232920 75 222 0.0 2.6 0.00 0.29 0.31 66 1008.2
20260508232819 75 196 0.9 3.5 0.00 0.29 0.31 66 1008.2
20260508232720 75 188 2.6 3.5 0.00 0.29 0.31 66 1008.2
20260508232620 75 177 1.7 3.5 0.00 0.29 0.31 66 1008.2
20260508232519 75 280 0.0 2.6 0.00 0.29 0.31 66 1008.2
20260508232419 75 83 1.7 2.6 0.00 0.29 0.31 66 1008.2
20260508232320 75 123 0.0 2.6 0.00 0.29 0.31 66 1008.1
20260508232219 75 27 0.9 3.5 0.00 0.29 0.31 66 1008.3
20260508232020 76 159 1.7 3.5 0.00 0.29 0.31 66 1008.1
20260508231920 76 57 2.6 3.5 0.00 0.29 0.31 66 1008.4
20260508231820 76 194 0.9 2.6 0.00 0.29 0.31 65 1008.4
20260508231520 76 85 1.7 3.5 0.00 0.29 0.31 65 1008.1
20260508231220 76 195 0.0 3.5 0.00 0.29 0.31 65 1008.2
20260508231123 76 167 3.5 3.5 0.00 0.29 0.31 65 1008.3
20260508230720 76 160 0.9 3.5 0.00 0.29 0.31 65 1008.2
20260508230620 76 70 1.7 3.5 0.00 0.29 0.31 64 1008.2
20260508230520 76 229 0.0 1.7 0.00 0.29 0.31 64 1008.1
20260508230420 76 181 1.7 1.7 0.00 0.29 0.31 64 1008.3
20260508230019 77 166 0.0 1.7 0.00 0.29 0.31 64 1008.5
20260508225719 77 245 0.9 1.7 0.00 0.29 0.31 63 1008.3
20260508225520 77 232 0.0 1.7 0.00 0.29 0.31 63 1008.4
20260508225220 78 39 0.9 2.6 0.00 0.29 0.31 63 1008.3
20260508225019 77 232 1.7 2.6 0.00 0.29 0.31 64 1008.3
20260508224819 77 282 0.9 1.7 0.00 0.29 0.31 64 1008.2
20260508224719 77 275 0.9 1.7 0.00 0.29 0.31 65 1008.1
20260508223921 77 57 1.7 1.7 0.00 0.29 0.31 64 1008.2
20260508223820 77 356 0.0 3.5 0.00 0.29 0.31 64 1008.1
20260508223720 77 176 1.7 3.5 0.00 0.29 0.31 64 1008.1
20260508223619 77 237 0.0 3.5 0.00 0.29 0.31 64 1008.2
20260508223520 77 236 0.9 3.5 0.00 0.29 0.31 64 1008.3
20260508223319 77 259 0.0 3.5 0.00 0.29 0.31 63 1008.2
20260508223220 77 180 1.7 2.6 0.00 0.29 0.31 64 1008.2
20260508223019 77 292 0.9 1.7 0.00 0.29 0.31 64 1008.4
20260508222920 77 251 1.7 1.7 0.00 0.29 0.31 64 1008.2
20260508222619 78 185 0.0 3.5 0.00 0.29 0.31 63 1008.3
20260508222520 78 206 0.9 3.5 0.00 0.29 0.31 63 1008.0
20260508222420 78 263 0.9 2.6 0.00 0.29 0.31 63 1008.1
20260508222320 78 353 0.0 2.6 0.00 0.29 0.31 63 1008.0
20260508222220 78 44 1.7 2.6 0.00 0.29 0.31 63 1008.1
20260508222120 78 215 2.6 2.6 0.00 0.29 0.31 63 1008.2
20260508222020 78 255 0.0 2.6 0.00 0.29 0.31 63 1008.2
20260508221919 78 143 0.9 2.6 0.00 0.29 0.31 63 1008.0
20260508221819 78 200 1.7 3.5 0.00 0.29 0.31 63 1008.0
20260508221720 78 297 1.7 3.5 0.00 0.29 0.31 62 1008.0
20260508221419 78 53 0.0 3.5 0.00 0.29 0.31 62 1007.9
20260508221320 78 114 1.7 3.5 0.00 0.29 0.31 62 1007.9
20260508221219 78 323 0.9 2.6 0.00 0.29 0.31 62 1007.9
20260508221119 79 203 1.7 2.6 0.00 0.29 0.31 62 1007.9
20260508220820 79 341 0.0 2.6 0.00 0.29 0.31 61 1008.0
20260508220719 79 271 0.9 5.2 0.00 0.29 0.31 60 1007.7
20260508220619 79 220 1.7 5.2 0.00 0.29 0.31 60 1008.1
20260508220419 80 110 0.9 1.7 0.00 0.29 0.31 60 1007.9
20260508220120 79 241 0.9 1.7 0.00 0.29 0.31 60 1007.9
20260508215819 80 74 1.7 1.7 0.00 0.29 0.31 60 1008.0
20260508215720 80 271 0.9 3.5 0.00 0.29 0.31 60 1007.9
20260508215619 80 10 1.7 3.5 0.00 0.29 0.31 60 1008.0
20260508215519 80 223 1.7 1.7 0.00 0.29 0.31 60 1007.9
20260508215219 80 261 0.0 1.7 0.00 0.29 0.31 60 1007.9
20260508215019 79 217 0.9 1.7 0.00 0.29 0.31 61 1008.0
20260508214920 79 288 0.0 2.6 0.00 0.29 0.31 61 1008.1
20260508214819 79 251 0.9 3.5 0.00 0.29 0.31 61 1007.8
20260508214520 79 29 1.7 2.6 0.00 0.29 0.31 60 1007.9
20260508214419 79 121 0.0 3.5 0.00 0.29 0.31 60 1007.7
20260508214320 79 180 0.9 3.5 0.00 0.29 0.31 60 1008.0
20260508214220 79 241 0.9 2.6 0.00 0.29 0.31 61 1008.0
20260508214120 79 359 0.9 2.6 0.00 0.29 0.31 60 1007.9
20260508214019 79 11 1.7 3.5 0.00 0.29 0.31 60 1008.0
20260508213920 79 200 3.5 3.5 0.00 0.29 0.31 60 1008.3
20260508213820 79 225 1.7 2.6 0.00 0.29 0.31 60 1008.2
20260508213619 79 76 0.9 3.5 0.00 0.29 0.31 59 1008.0
20260508213419 79 26 0.0 1.7 0.00 0.29 0.31 60 1007.9
20260508213320 79 189 1.7 1.7 0.00 0.29 0.31 61 1008.0
20260508212919 78 203 0.9 2.6 0.00 0.29 0.31 60 1007.9
20260508212720 78 240 0.0 2.6 0.00 0.29 0.31 61 1007.9
20260508212620 78 165 0.9 1.7 0.00 0.29 0.31 61 1008.2
20260508212519 78 217 0.0 1.7 0.00 0.29 0.31 61 1008.0
20260508212419 78 225 1.7 2.6 0.00 0.29 0.31 60 1008.2
20260508212320 78 295 0.9 2.6 0.00 0.29 0.31 61 1008.3
20260508212220 78 326 0.0 3.5 0.00 0.29 0.31 61 1008.3
20260508212019 78 75 1.7 3.5 0.00 0.29 0.31 60 1008.1
20260508211919 78 145 1.7 3.5 0.00 0.29 0.31 61 1008.2
20260508210819 78 161 0.0 2.6 0.00 0.29 0.31 61 1008.4
20260508210719 78 238 1.7 3.5 0.00 0.29 0.31 60 1008.6
20260508210620 78 98 1.7 3.5 0.00 0.29 0.31 61 1008.6
20260508210519 78 328 0.9 1.7 0.00 0.29 0.31 61 1008.6
20260508210321 78 49 0.0 3.5 0.00 0.29 0.31 61 1008.8
20260508210220 78 157 0.9 2.6 0.00 0.29 0.31 61 1008.8
20260508210120 78 206 1.7 2.6 0.00 0.29 0.31 62 1008.7
20260508210020 77 203 2.6 2.6 0.00 0.29 0.31 62 1008.6
20260508205720 77 249 2.6 3.5 0.00 0.29 0.31 63 1008.9
20260508205620 76 205 0.9 2.6 0.00 0.29 0.31 63 1009.1
20260508205520 76 208 1.7 2.6 0.00 0.29 0.31 63 1009.1
20260508205421 76 151 1.7 2.6 0.00 0.29 0.31 63 1009.0
20260508205321 76 234 1.7 1.7 0.00 0.29 0.31 64 1009.3
20260508205121 76 215 0.0 2.6 0.00 0.29 0.31 63 1009.5
20260508204620 75 11 0.9 2.6 0.00 0.29 0.31 64 1009.5
20260508204320 75 232 0.0 2.6 0.00 0.29 0.31 64 1009.7
20260508204220 76 156 0.9 2.6 0.00 0.29 0.31 64 1010.0
20260508203920 76 310 1.7 3.5 0.00 0.29 0.31 63 1010.0
20260508203820 76 222 0.0 3.5 0.00 0.29 0.31 63 1010.0
20260508203521 76 83 3.5 3.5 0.00 0.29 0.31 63 1009.8
20260508203320 76 182 0.0 3.5 0.00 0.29 0.31 62 1010.1
20260508203221 76 249 1.7 3.5 0.00 0.29 0.31 62 1010.1
20260508203120 76 204 3.5 3.5 0.00 0.29 0.31 62 1010.2
20260508203020 76 191 0.0 3.5 0.00 0.29 0.31 62 1010.1
20260508202920 76 190 1.7 2.6 0.00 0.29 0.31 62 1010.1
20260508202821 77 214 0.9 2.6 0.00 0.29 0.31 62 1010.1
20260508202720 77 110 0.0 2.6 0.00 0.29 0.31 61 1010.3
20260508202420 77 197 1.7 3.5 0.00 0.29 0.31 61 1010.2
20260508202321 77 185 1.7 1.7 0.00 0.29 0.31 61 1010.2
20260508201620 77 242 0.0 1.7 0.00 0.29 0.31 61 1010.3
20260508201520 77 142 0.9 1.7 0.00 0.29 0.31 61 1010.0
20260508201421 77 201 0.0 2.6 0.00 0.29 0.31 61 1010.0
20260508201321 77 336 1.7 1.7 0.00 0.29 0.31 61 1010.2
20260508201021 77 182 1.7 2.6 0.00 0.29 0.31 60 1010.0
20260508200921 78 159 0.0 2.6 0.00 0.29 0.31 60 1010.1
20260508200821 78 194 1.7 2.6 0.00 0.29 0.31 60 1010.1
20260508200020 78 154 0.0 1.7 0.00 0.29 0.31 61 1010.0
20260508195920 78 243 0.9 1.7 0.00 0.29 0.31 60 1010.2
20260508195820 78 224 1.7 2.6 0.00 0.29 0.31 60 1010.1
20260508195520 78 211 0.0 2.6 0.00 0.29 0.31 60 1010.1
20260508195420 78 180 0.9 3.5 0.00 0.29 0.31 60 1010.0
20260508195320 78 203 0.9 3.5 0.00 0.29 0.31 60 1010.1
20260508195220 78 237 1.7 2.6 0.00 0.29 0.31 60 1010.1
20260508194920 78 249 0.0 3.5 0.00 0.29 0.31 59 1010.0
20260508194820 78 201 1.7 3.5 0.00 0.29 0.31 60 1010.1
20260508194720 78 342 0.9 4.3 0.00 0.29 0.31 59 1010.1
20260508194621 78 269 4.3 4.3 0.00 0.29 0.31 59 1010.0
20260508194520 78 203 1.7 2.6 0.00 0.29 0.31 60 1009.9
20260508194420 78 219 0.0 1.7 0.00 0.29 0.31 60 1010.0
20260508194321 78 280 0.9 2.6 0.00 0.29 0.31 59 1010.0
20260508194220 78 217 0.0 2.6 0.00 0.29 0.31 59 1010.1
20260508194121 79 184 1.7 2.6 0.00 0.29 0.31 59 1010.2
20260508194021 79 256 0.0 2.6 0.00 0.29 0.31 59 1010.3
20260508193920 79 217 1.7 2.6 0.00 0.29 0.31 59 1010.4
20260508193821 79 325 0.0 3.5 0.00 0.29 0.31 58 1010.1
20260508193721 79 291 0.9 3.5 0.00 0.29 0.31 58 1010.2
20260508193620 79 225 1.7 2.6 0.00 0.29 0.31 58 1010.0
20260508193520 79 215 0.9 2.6 0.00 0.29 0.31 58 1010.1
20260508193420 79 173 0.9 1.7 0.00 0.29 0.31 58 1010.1
20260508193321 79 38 0.0 1.7 0.00 0.29 0.31 58 1010.0
20260508193220 79 349 0.9 2.6 0.00 0.29 0.31 58 1010.2
20260508193120 79 53 1.7 1.7 0.00 0.29 0.31 58 1010.2
20260508192420 79 38 0.0 1.7 0.00 0.29 0.31 57 1010.3
20260508192320 79 213 1.7 1.7 0.00 0.29 0.31 57 1010.0
20260508192020 79 242 0.0 2.6 0.00 0.29 0.31 56 1010.0
20260508191921 80 96 0.9 2.6 0.00 0.29 0.31 56 1010.2
20260508191721 80 312 0.0 1.7 0.00 0.29 0.31 56 1010.0
20260508191621 80 124 1.7 1.7 0.00 0.29 0.31 56 1010.1
20260508191521 80 202 0.9 1.7 0.00 0.29 0.31 56 1010.2
20260508191420 80 338 1.7 1.7 0.00 0.29 0.31 56 1010.1
20260508191321 80 284 0.0 2.6 0.00 0.29 0.31 55 1010.0
20260508191220 80 65 1.7 2.6 0.00 0.29 0.31 55 1010.3
20260508190720 81 32 0.0 4.3 0.00 0.29 0.31 55 1010.5
20260508190621 81 211 1.7 3.5 0.00 0.29 0.31 55 1010.3
20260508190520 81 239 1.7 3.5 0.00 0.29 0.31 55 1010.3
20260508190421 81 149 1.7 1.7 0.00 0.29 0.31 55 1010.3
20260508190120 81 119 1.7 1.7 0.00 0.29 0.31 55 1010.1
20260508185820 81 77 0.0 3.5 0.00 0.29 0.31 54 1010.2
20260508185721 81 217 1.7 3.5 0.00 0.29 0.31 55 1010.3
20260508185220 80 239 1.7 3.5 0.00 0.29 0.31 56 1010.3
20260508185120 80 291 0.0 1.7 0.00 0.29 0.31 56 1010.3
20260508185020 80 223 1.7 2.6 0.00 0.29 0.31 56 1010.2
20260508184720 80 308 1.7 2.6 0.00 0.29 0.31 56 1010.3
20260508184620 80 247 2.6 2.6 0.00 0.29 0.31 56 1010.3
20260508184520 80 254 0.9 2.6 0.00 0.29 0.31 56 1010.3
20260508184419 80 198 1.7 2.6 0.00 0.29 0.31 56 1010.4
20260508184320 80 217 0.9 1.7 0.00 0.29 0.31 56 1010.3
20260508184120 80 220 1.7 1.7 0.00 0.29 0.31 55 1010.4
20260508184020 80 237 0.9 1.7 0.00 0.29 0.31 55 1010.2
20260508183920 80 282 0.9 1.7 0.00 0.29 0.31 55 1010.3
20260508183720 80 163 0.0 3.5 0.00 0.29 0.31 54 1010.4
20260508183620 80 221 1.7 4.3 0.00 0.29 0.31 54 1010.5
20260508183020 80 210 0.0 2.6 0.00 0.29 0.31 56 1010.6
20260508182720 80 251 0.9 1.7 0.00 0.29 0.31 56 1010.6
20260508182521 79 117 0.0 3.5 0.00 0.29 0.31 56 1010.7
20260508182420 79 291 1.7 3.5 0.00 0.29 0.31 56 1010.7
20260508182320 79 286 0.9 1.7 0.00 0.29 0.31 57 1010.7
20260508182220 79 228 0.0 2.6 0.00 0.29 0.31 56 1011.0
20260508182121 79 263 1.7 2.6 0.00 0.29 0.31 55 1011.0
20260508182021 79 203 0.0 3.5 0.00 0.29 0.31 55 1010.7
20260508181720 79 341 0.9 2.6 0.00 0.29 0.31 55 1011.0
20260508181620 79 302 0.9 1.7 0.00 0.29 0.31 55 1011.0
20260508181520 79 335 0.0 2.6 0.00 0.29 0.31 55 1010.9
20260508181420 79 19 1.7 2.6 0.00 0.29 0.31 55 1010.8
20260508181220 79 99 0.0 2.6 0.00 0.29 0.31 55 1010.9
20260508181121 79 296 1.7 2.6 0.00 0.29 0.31 55 1011.1
20260508181020 79 203 2.6 2.6 0.00 0.29 0.31 56 1011.1
20260508180721 79 220 1.7 2.6 0.00 0.29 0.31 57 1011.2
20260508180420 78 222 3.5 3.5 0.00 0.29 0.31 57 1011.2
20260508180320 78 226 1.7 3.5 0.00 0.29 0.31 57 1011.3
20260508180220 78 205 1.7 3.5 0.00 0.29 0.31 56 1011.4
20260508180120 78 240 0.0 2.6 0.00 0.29 0.31 56 1011.2
20260508180020 78 217 1.7 2.6 0.00 0.29 0.31 57 1011.3
20260508175720 77 156 0.9 2.6 0.00 0.29 0.31 57 1011.3
20260508175420 77 41 1.7 3.5 0.00 0.29 0.31 58 1011.5
20260508175320 77 223 1.7 4.3 0.00 0.29 0.31 57 1011.5
20260508175120 77 134 1.7 5.2 0.00 0.29 0.31 57 1011.3
20260508175020 77 256 0.9 2.6 0.00 0.29 0.31 57 1011.4
20260508174721 77 27 2.6 3.5 0.00 0.29 0.31 57 1011.6
20260508174620 76 176 0.0 3.5 0.00 0.29 0.31 58 1011.2
20260508174520 76 52 2.6 2.6 0.00 0.29 0.31 58 1011.6
20260508174420 76 41 0.0 2.6 0.00 0.29 0.31 58 1011.5
20260508174320 76 197 0.9 2.6 0.00 0.29 0.31 58 1011.6
20260508174120 76 324 0.0 4.3 0.00 0.29 0.31 57 1011.5
20260508174021 76 72 0.9 4.3 0.00 0.29 0.31 56 1011.4
20260508173923 77 68 1.7 4.3 0.00 0.29 0.31 56 1011.3
20260508173820 77 235 0.0 4.3 0.00 0.29 0.31 57 1011.4
20260508173721 77 77 2.6 3.5 0.00 0.29 0.31 58 1011.7
20260508172620 76 168 0.0 2.6 0.00 0.29 0.31 59 1011.8
20260508172521 76 204 1.7 3.5 0.00 0.29 0.31 59 1011.6
20260508172120 76 256 0.0 2.6 0.00 0.29 0.31 58 1011.9
20260508172020 76 287 0.9 2.6 0.00 0.29 0.31 58 1012.0
20260508171921 76 63 0.9 2.6 0.00 0.29 0.31 59 1012.0
20260508171720 76 209 0.0 3.5 0.00 0.29 0.31 59 1011.9
20260508171621 76 209 1.7 3.5 0.00 0.29 0.31 59 1012.1
20260508171521 76 246 0.0 2.6 0.00 0.29 0.31 59 1012.2
20260508171320 75 208 0.9 2.6 0.00 0.29 0.31 59 1012.2
20260508171220 75 201 1.7 2.6 0.00 0.29 0.31 60 1012.2
20260508171120 75 320 1.7 4.3 0.00 0.29 0.31 59 1012.1
20260508171020 75 102 2.6 4.3 0.00 0.29 0.31 59 1012.2
20260508170721 75 218 1.7 4.3 0.00 0.29 0.31 60 1012.5
20260508170620 74 83 0.9 4.3 0.00 0.29 0.31 60 1012.6
20260508170520 74 102 0.0 1.7 0.00 0.29 0.31 61 1012.6
20260508170420 74 281 1.7 1.7 0.00 0.29 0.31 61 1012.6
20260508170320 74 91 0.9 1.7 0.00 0.29 0.31 61 1012.6
20260508170219 74 277 0.9 0.9 0.00 0.29 0.31 62 1012.8
20260508165920 73 269 0.0 2.6 0.00 0.29 0.31 62 1012.8
20260508165720 73 159 0.9 1.7 0.00 0.29 0.31 61 1012.8
20260508165619 73 213 0.0 3.5 0.00 0.29 0.31 61 1012.9
20260508165520 73 200 1.7 5.2 0.00 0.29 0.31 61 1012.9
20260508165420 73 99 3.5 5.2 0.00 0.29 0.31 60 1012.8
20260508165320 74 146 0.0 4.3 0.00 0.29 0.31 59 1012.9
20260508165219 74 124 2.6 5.2 0.00 0.29 0.31 59 1012.9
20260508164919 74 104 1.7 2.6 0.00 0.29 0.31 58 1012.9
20260508164820 74 36 1.7 2.6 0.00 0.29 0.31 58 1013.2
20260508164620 74 147 0.9 2.6 0.00 0.29 0.31 60 1013.1
20260508164519 74 59 0.0 1.7 0.00 0.29 0.31 61 1013.1
20260508164420 74 325 0.9 1.7 0.00 0.29 0.31 61 1013.1
20260508164120 73 320 1.7 2.6 0.00 0.29 0.31 61 1013.2
20260508164020 73 49 1.7 2.6 0.00 0.29 0.31 61 1013.1
20260508163920 73 39 0.0 2.6 0.00 0.29 0.31 62 1013.2
20260508163620 72 213 0.9 2.6 0.00 0.29 0.31 63 1013.4
20260508163520 72 230 0.9 1.7 0.00 0.29 0.31 62 1013.2
20260508163320 72 94 1.7 1.7 0.00 0.29 0.31 63 1013.5
20260508163020 71 327 0.0 1.7 0.00 0.29 0.31 64 1013.5
20260508162921 71 45 0.9 2.6 0.00 0.29 0.31 63 1013.6
20260508162620 71 214 1.7 2.6 0.00 0.29 0.31 63 1013.6
20260508162520 71 75 1.7 2.6 0.00 0.29 0.31 63 1013.6
20260508162420 71 148 0.0 2.6 0.00 0.29 0.31 63 1013.6
20260508162321 71 79 2.6 2.6 0.00 0.29 0.31 64 1013.5
20260508162121 70 228 0.0 2.6 0.00 0.29 0.31 64 1013.7
20260508161920 70 105 1.7 2.6 0.00 0.29 0.31 64 1013.7
20260508161520 70 336 0.0 2.6 0.00 0.29 0.31 65 1013.8
20260508161321 70 236 0.9 2.6 0.00 0.29 0.31 66 1013.6
20260508161120 70 227 0.9 1.7 0.00 0.29 0.31 67 1013.8
20260508160721 69 195 0.0 2.6 0.00 0.29 0.31 66 1013.8
20260508160620 69 242 0.9 2.6 0.00 0.29 0.31 66 1013.8
20260508155719 69 44 0.0 4.3 0.00 0.29 0.31 66 1013.9
20260508155619 69 149 0.9 1.7 0.00 0.29 0.31 67 1013.9
20260508155520 69 62 0.9 1.7 0.00 0.29 0.31 67 1013.9
20260508155419 69 112 1.7 3.5 0.00 0.29 0.31 67 1014.1
20260508155119 69 92 0.0 1.7 0.00 0.29 0.31 68 1013.9
20260508155019 69 184 0.9 0.9 0.00 0.29 0.31 68 1014.0
20260508154519 69 67 1.7 1.7 0.00 0.29 0.31 66 1014.2
20260508154419 69 107 0.0 1.7 0.00 0.29 0.31 67 1014.3
20260508154319 69 66 0.9 1.7 0.00 0.29 0.31 67 1014.4
20260508153920 69 40 0.0 5.2 0.00 0.29 0.31 66 1014.2
20260508153820 69 135 1.7 5.2 0.00 0.29 0.31 66 1014.2
20260508153720 69 103 0.0 3.5 0.00 0.29 0.31 67 1014.2
20260508153620 69 155 1.7 3.5 0.00 0.29 0.31 68 1014.2
20260508153520 69 33 0.0 1.7 0.00 0.29 0.31 69 1014.2
20260508153420 68 139 0.9 0.9 0.00 0.29 0.31 68 1014.2
20260508152820 68 134 0.0 1.7 0.00 0.29 0.31 67 1014.2
20260508152720 68 174 0.9 1.7 0.00 0.29 0.31 67 1014.3
20260508152420 68 188 0.0 2.6 0.00 0.29 0.31 68 1014.1
20260508152320 68 193 0.9 1.7 0.00 0.29 0.31 68 1014.0
20260508152220 68 190 0.0 3.5 0.00 0.29 0.31 68 1014.0
20260508152121 68 33 1.7 3.5 0.00 0.29 0.31 68 1014.2
20260508151921 68 199 0.0 2.6 0.00 0.29 0.31 68 1014.2
20260508151720 68 219 0.9 1.7 0.00 0.29 0.31 68 1014.2
20260508151520 68 155 0.0 0.9 0.00 0.29 0.31 69 1014.3
20260508151420 68 79 0.9 0.9 0.00 0.29 0.31 69 1014.2
20260508151220 68 127 0.0 2.6 0.00 0.29 0.31 69 1014.0
20260508151121 68 112 0.9 2.6 0.00 0.29 0.31 69 1014.2
20260508151020 68 126 0.0 1.7 0.00 0.29 0.31 70 1014.3
20260508150920 68 188 0.9 1.7 0.00 0.29 0.31 70 1014.2
20260508150420 68 171 0.0 1.7 0.00 0.29 0.31 70 1014.3
20260508150320 68 76 0.9 1.7 0.00 0.29 0.31 69 1014.3
20260508150119 68 208 0.0 1.7 0.00 0.29 0.31 69 1014.3
20260508150020 68 180 1.7 1.7 0.00 0.29 0.31 69 1014.3
20260508145919 68 120 0.9 2.6 0.00 0.29 0.31 69 1014.2
20260508145820 68 47 0.0 2.6 0.00 0.29 0.31 68 1014.4
20260508145719 69 58 0.9 1.7 0.00 0.29 0.31 70 1014.3
20260508144719 68 59 0.0 1.7 0.00 0.29 0.31 72 1014.4
20260508144620 68 285 1.7 1.7 0.00 0.29 0.31 72 1014.7
20260508143420 67 74 1.7 3.5 0.00 0.29 0.31 74 1014.3
20260508143120 67 51 0.9 2.6 0.00 0.29 0.31 74 1014.4
20260508143020 67 100 0.9 1.7 0.00 0.29 0.31 74 1014.4
20260508142720 67 82 0.9 3.5 0.00 0.29 0.31 75 1014.5
20260508142521 66 87 0.0 2.6 0.00 0.29 0.31 76 1014.5
20260508142421 66 82 0.9 1.7 0.00 0.29 0.31 78 1014.8
20260508142320 66 89 1.7 1.7 0.00 0.29 0.31 78 1014.8
20260508142120 65 202 0.0 2.6 0.00 0.29 0.31 77 1014.6
20260508142020 65 62 1.7 3.5 0.00 0.29 0.31 77 1014.6
20260508141920 65 110 3.5 3.5 0.00 0.29 0.31 78 1014.7
20260508141821 65 48 0.0 1.7 0.00 0.29 0.31 78 1014.8
20260508141721 65 115 0.9 1.7 0.00 0.29 0.31 79 1014.7
20260508141520 65 109 0.0 1.7 0.00 0.29 0.31 78 1014.7
20260508141420 65 4 0.9 1.7 0.00 0.29 0.31 79 1014.8
20260508141320 65 117 1.7 2.6 0.00 0.29 0.31 79 1014.9
20260508141221 65 46 0.9 2.6 0.00 0.29 0.31 80 1014.7
20260508140920 64 188 0.0 2.6 0.00 0.29 0.31 81 1014.7
20260508140820 64 57 0.9 4.3 0.00 0.29 0.31 81 1014.8
20260508140720 64 86 0.0 4.3 0.00 0.29 0.31 83 1014.8
20260508140621 64 166 0.9 2.6 0.00 0.29 0.31 84 1014.6
20260508140520 64 52 0.9 3.5 0.00 0.29 0.31 84 1015.0
20260508140420 64 169 1.7 3.5 0.00 0.29 0.31 84 1014.7
20260508140319 64 35 0.0 4.3 0.00 0.29 0.31 84 1014.8
20260508140219 64 2 0.9 4.3 0.00 0.29 0.31 83 1014.7
20260508140120 64 80 1.7 3.5 0.00 0.29 0.31 83 1014.7
20260508140019 64 116 2.6 2.6 0.00 0.29 0.31 84 1014.9
20260508135820 64 166 0.0 3.5 0.00 0.29 0.31 84 1015.1
20260508135719 64 106 2.6 3.5 0.00 0.29 0.31 84 1015.0
20260508135620 64 163 1.7 2.6 0.00 0.29 0.31 85 1014.7
20260508135519 64 280 0.0 3.5 0.00 0.29 0.31 85 1014.9
20260508135219 64 200 1.7 3.5 0.00 0.29 0.31 83 1014.5
20260508135120 64 252 1.7 3.5 0.00 0.29 0.31 83 1014.5
20260508135019 64 215 2.6 3.5 0.00 0.29 0.31 84 1014.5
20260508134919 64 137 2.6 3.5 0.00 0.29 0.31 84 1014.6
20260508134821 64 119 0.9 3.5 0.00 0.29 0.31 85 1014.7
20260508134619 64 29 2.6 4.3 0.00 0.29 0.31 86 1014.8
20260508134519 64 171 0.9 4.3 0.00 0.29 0.31 86 1014.9
20260508134419 63 36 0.0 3.5 0.00 0.29 0.31 86 1014.9
20260508134319 63 11 1.7 3.5 0.00 0.29 0.31 87 1014.8
20260508134220 63 72 1.7 3.5 0.00 0.29 0.31 88 1014.7
20260508134120 63 99 0.9 2.6 0.00 0.29 0.31 89 1014.9
20260508133720 62 113 1.7 3.5 0.01 0.29 0.31 88 1014.9
20260508133620 62 106 1.7 3.5 0.01 0.29 0.31 88 1014.9
20260508133520 62 125 1.7 2.6 0.01 0.29 0.31 88 1014.7
20260508133420 62 31 0.9 3.5 0.03 0.29 0.31 88 1014.8
20260508133320 62 79 1.7 3.5 0.03 0.29 0.31 88 1014.8
20260508133220 62 140 2.6 2.6 0.03 0.29 0.31 88 1014.8
20260508132720 62 94 0.9 3.5 0.03 0.29 0.31 90 1014.6
20260508132620 62 96 1.7 3.5 0.03 0.29 0.31 91 1014.9
20260508132520 62 344 0.9 2.6 0.03 0.29 0.31 91 1015.0
20260508132420 61 114 0.9 3.5 0.04 0.29 0.31 92 1015.1
20260508132320 61 132 3.5 3.5 0.04 0.29 0.31 92 1015.2
20260508131920 61 95 0.9 2.6 0.04 0.29 0.31 92 1015.0
20260508131820 61 98 1.7 2.6 0.04 0.29 0.31 92 1015.0
20260508131420 60 25 1.7 3.5 0.04 0.29 0.31 92 1015.1
20260508130920 60 3 2.6 3.5 0.04 0.29 0.31 92 1014.9
20260508130820 60 0 1.7 2.6 0.04 0.29 0.31 92 1014.9
20260508130620 60 15 1.7 3.5 0.04 0.29 0.31 92 1014.9
20260508130520 60 45 0.0 3.5 0.04 0.29 0.31 92 1014.8
20260508130419 60 7 1.7 3.5 0.04 0.29 0.31 92 1014.9
20260508130219 60 59 2.6 2.6 0.04 0.29 0.31 92 1014.9
20260508125820 60 156 0.9 2.6 0.04 0.29 0.31 92 1014.9
20260508125720 60 134 1.7 3.5 0.04 0.29 0.31 92 1014.9
20260508125620 60 64 1.7 3.5 0.04 0.29 0.31 92 1015.1
20260508125519 60 91 1.7 3.5 0.04 0.29 0.31 92 1014.9
20260508125219 60 73 1.7 2.6 0.04 0.28 0.31 92 1015.2
20260508125119 60 100 0.0 2.6 0.04 0.28 0.30 92 1015.2
20260508125019 60 100 1.7 1.7 0.04 0.28 0.30 92 1015.5
20260508124419 60 247 0.0 1.7 0.04 0.28 0.30 92 1015.4
20260508124320 60 155 0.9 1.7 0.04 0.28 0.30 92 1015.3
20260508123819 60 269 0.0 3.5 0.03 0.28 0.30 92 1014.8
20260508123719 60 82 1.7 3.5 0.03 0.27 0.30 92 1015.1
20260508123620 60 84 0.9 3.5 0.02 0.26 0.29 92 1014.9
20260508123520 60 34 1.7 2.6 0.01 0.26 0.28 92 1015.1
20260508123419 60 74 0.9 1.7 0.02 0.26 0.28 92 1015.3
20260508123220 60 349 0.0 1.7 0.01 0.26 0.28 92 1015.4
20260508123120 60 81 1.7 2.6 0.01 0.26 0.28 92 1015.5
20260508123020 60 59 0.0 2.6 0.01 0.26 0.28 92 1015.6
20260508122919 60 67 0.9 2.6 0.01 0.25 0.28 92 1015.4
20260508122819 60 9 1.7 3.5 0.01 0.25 0.27 92 1015.5
20260508122720 60 31 1.7 3.5 0.01 0.25 0.27 92 1015.7
20260508122120 60 49 0.0 2.6 0.01 0.25 0.27 91 1015.1
20260508122019 60 69 0.9 2.6 0.01 0.25 0.27 91 1015.1
20260508121820 60 165 0.9 2.6 0.01 0.25 0.27 91 1015.2
20260508121720 60 114 1.7 2.6 0.01 0.25 0.27 91 1015.1
20260508121420 60 97 1.7 2.6 0.01 0.25 0.27 91 1015.2
20260508121319 60 295 1.7 1.7 0.01 0.25 0.27 92 1015.3
20260508120719 60 73 1.7 2.6 0.01 0.25 0.27 92 1014.9
20260508120620 60 101 1.7 2.6 0.01 0.25 0.27 92 1015.0
20260508120520 60 99 0.0 2.6 0.01 0.25 0.27 92 1015.3
20260508120419 60 130 1.7 2.6 0.05 0.25 0.27 92 1014.8
20260508120320 60 158 1.7 2.6 0.05 0.25 0.27 92 1015.2
20260508120219 60 123 0.9 2.6 0.05 0.25 0.27 92 1015.1
20260508120119 60 133 0.0 2.6 0.05 0.25 0.27 92 1015.2
20260508115820 60 77 2.6 3.5 0.07 0.25 0.27 93 1014.9
20260508115720 60 47 1.7 3.5 0.07 0.25 0.27 93 1014.9
20260508115420 60 324 0.0 3.5 0.07 0.25 0.27 93 1015.1
20260508115319 60 225 1.7 1.7 0.07 0.25 0.27 93 1015.3
20260508115219 60 29 0.0 3.5 0.07 0.25 0.27 93 1015.1
20260508115119 60 146 1.7 3.5 0.07 0.25 0.27 93 1015.0
20260508115019 60 64 0.0 2.6 0.07 0.25 0.27 94 1015.2
20260508114919 60 355 0.9 2.6 0.08 0.25 0.27 94 1015.3
20260508114820 60 352 1.7 2.6 0.08 0.25 0.27 94 1015.3
20260508114420 60 165 0.0 3.5 0.08 0.25 0.27 94 1015.5
20260508114319 60 182 0.9 3.5 0.08 0.25 0.27 94 1015.4
20260508114219 60 190 0.0 2.6 0.08 0.25 0.27 95 1015.0
20260508114120 60 182 1.7 3.5 0.08 0.25 0.27 95 1015.0
20260508114019 60 119 0.9 3.5 0.08 0.25 0.27 95 1015.0
20260508113819 60 2 0.9 3.5 0.08 0.25 0.27 95 1014.9
20260508113719 60 303 1.7 3.5 0.08 0.25 0.27 95 1014.9
20260508113619 60 89 0.9 5.2 0.08 0.24 0.27 95 1015.0
20260508113519 60 48 2.6 5.2 0.07 0.24 0.26 95 1015.1
20260508113420 60 59 0.9 3.5 0.07 0.24 0.26 95 1014.9
20260508113320 60 31 1.7 3.5 0.07 0.24 0.26 95 1015.0
20260508113220 60 130 1.7 3.5 0.07 0.24 0.26 95 1015.2
20260508113119 60 244 1.7 2.6 0.07 0.24 0.26 95 1015.0
20260508113019 60 133 0.9 2.6 0.07 0.24 0.26 95 1015.3
20260508112919 60 351 0.0 2.6 0.07 0.24 0.26 95 1015.0
20260508112820 60 155 1.7 3.5 0.07 0.24 0.26 95 1015.0
20260508112719 60 123 0.9 2.6 0.07 0.24 0.26 95 1015.0
20260508112619 60 63 1.7 3.5 0.07 0.24 0.26 95 1015.2
20260508112419 60 67 0.9 4.3 0.07 0.24 0.26 95 1015.0
20260508111219 60 337 2.6 3.5 0.08 0.24 0.26 95 1014.6
20260508110919 60 213 1.7 3.5 0.09 0.22 0.25 95 1014.6
20260508110619 60 80 1.7 3.5 0.07 0.21 0.23 95 1014.4
20260508110520 60 93 1.7 3.5 0.06 0.20 0.22 95 1014.7
20260508110221 60 71 0.9 3.5 0.06 0.19 0.21 94 1015.1
20260508110120 60 89 3.5 3.5 0.06 0.19 0.21 94 1015.0
20260508105621 60 99 1.7 3.5 0.04 0.18 0.20 94 1015.6
20260508104920 60 67 2.6 3.5 0.04 0.17 0.19 94 1016.0
20260508104820 60 337 0.9 3.5 0.04 0.17 0.19 94 1015.8
20260508104720 60 328 1.7 4.3 0.04 0.17 0.19 94 1015.8
20260508104620 60 343 1.7 4.3 0.04 0.17 0.19 94 1015.8
20260508104521 60 320 2.6 6.1 0.04 0.17 0.19 94 1015.6
20260508104420 61 296 5.2 6.1 0.04 0.17 0.19 94 1015.4
20260508104320 61 298 1.7 3.5 0.04 0.17 0.19 94 1015.2
20260508104220 60 213 1.7 2.6 0.04 0.17 0.19 94 1015.0
20260508104120 60 130 2.6 3.5 0.04 0.17 0.19 94 1015.0
20260508103821 60 103 2.6 2.6 0.04 0.17 0.19 93 1015.1
20260508103720 60 240 0.9 1.7 0.04 0.17 0.19 93 1015.3
20260508103221 60 105 0.0 4.3 0.04 0.17 0.19 93 1015.4
20260508102720 60 319 1.7 4.3 0.04 0.17 0.19 94 1015.2
20260508102620 60 273 3.5 4.3 0.04 0.17 0.19 93 1015.1
20260508102520 60 299 1.7 2.6 0.04 0.17 0.19 93 1014.8
20260508102420 60 306 0.9 2.6 0.04 0.17 0.19 93 1014.4
20260508102320 60 54 0.0 2.6 0.04 0.17 0.19 93 1014.5
20260508102220 60 221 1.7 2.6 0.04 0.17 0.19 93 1014.3
20260508101920 60 85 0.9 1.7 0.04 0.17 0.19 93 1014.3
20260508101720 60 149 0.0 1.7 0.04 0.17 0.19 93 1014.3
20260508101619 60 117 0.9 1.7 0.03 0.16 0.18 93 1014.5
20260508101020 60 316 0.0 1.7 0.01 0.14 0.16 94 1014.8
20260508100320 60 154 0.0 1.7 0.00 0.13 0.15 94 1014.0
20260508100220 60 155 0.9 1.7 0.00 0.13 0.15 94 1014.0
20260508093021 60 47 0.0 1.7 0.05 0.13 0.15 94 1014.2
20260508092920 60 73 0.9 0.9 0.05 0.13 0.15 94 1014.3
20260508091620 60 147 0.0 0.9 0.07 0.13 0.15 93 1014.6
20260508091321 60 76 1.7 1.7 0.09 0.13 0.15 94 1014.4
20260508091220 60 140 0.0 1.7 0.09 0.13 0.15 93 1014.4
20260508091120 60 50 0.9 0.9 0.09 0.13 0.15 93 1014.4
20260508083920 60 316 0.0 3.5 0.11 0.09 0.11 90 1015.4
20260508083820 60 303 2.6 3.5 0.11 0.09 0.11 90 1015.4
20260508083720 60 294 2.6 3.5 0.11 0.09 0.11 90 1015.2
20260508083620 60 294 1.7 3.5 0.11 0.09 0.11 90 1015.2
20260508083521 60 284 2.6 3.5 0.11 0.09 0.11 90 1015.1
20260508083420 60 294 2.6 3.5 0.11 0.09 0.11 90 1015.0
20260508083320 60 294 1.7 3.5 0.11 0.09 0.11 90 1014.8
20260508083121 60 298 1.7 2.6 0.11 0.09 0.11 90 1014.6
20260508083020 60 319 1.7 2.6 0.11 0.09 0.11 90 1014.3
20260508082820 60 89 0.0 3.5 0.11 0.08 0.11 90 1013.9
20260508082720 60 73 2.6 4.3 0.10 0.07 0.10 90 1013.8
20260508082620 60 14 0.0 4.3 0.09 0.07 0.09 90 1013.9
20260508082521 61 89 0.9 3.5 0.09 0.07 0.09 89 1014.2
20260508082020 61 88 0.9 1.7 0.09 0.06 0.09 89 1014.8
20260508081920 61 66 0.9 1.7 0.08 0.06 0.08 88 1014.7
20260508081521 62 32 0.0 1.7 0.07 0.05 0.07 86 1015.1
20260508081420 62 119 0.9 1.7 0.07 0.05 0.07 86 1015.3
20260508075820 63 353 0.0 2.6 0.02 0.00 0.02 77 1015.1
20260508075719 63 47 0.9 2.6 0.00 0.00 0.00 75 1015.3
20260508075621 63 98 1.7 2.6 0.00 0.00 0.00 74 1015.6
20260508075519 63 84 0.0 1.7 0.00 0.00 0.00 74 1015.6
20260508075420 63 94 1.7 1.7 0.00 0.00 0.00 74 1015.8
20260508074220 63 284 0.0 1.7 0.00 0.00 0.00 74 1016.1
20260508074120 63 277 0.9 0.9 0.00 0.00 0.00 74 1016.2
20260508073320 62 315 0.0 1.7 0.00 0.00 0.00 75 1016.3
20260508073220 62 279 0.9 1.7 0.00 0.00 0.00 75 1016.0
20260508073120 62 293 0.9 1.7 0.00 0.00 0.00 75 1015.8
20260508073021 62 300 0.9 1.7 0.00 0.00 0.00 75 1015.7
20260508072920 62 314 0.9 0.9 0.00 0.00 0.00 75 1015.5
20260508071520 62 92 1.7 1.7 0.00 0.00 0.00 76 1015.4
20260508065219 62 117 0.0 0.9 0.00 0.00 0.00 75 1015.4
20260508065119 62 121 0.9 0.9 0.00 0.00 0.00 75 1015.6
20260508064419 62 89 0.0 1.7 0.00 0.00 0.00 74 1015.7